^^
Station Historical Data
Daily Summary for May 8, 2019 Units:  English    Metric   Both
« Previous Day
Next Day »
Daily Weekly Monthly Yearly Custom
  High: Low: Average:
Temperature: 56.4 °F 37.3 °F 44.9 °F
Dew Point: 42.6 °F 27.5 °F 37.1 °F
Humidity: 95% 50% 76%
Wind Speed: 21mph 0mph 9.1mph
Wind Gust: 27mph - -
Wind- - NE
Pressure: 30.12 in 30.01 in -
Precipitation: 0.03 in    
Historical Graphs
 
 
Tabular Data for May 8, 2019
Time Temperature Dew Point Pressure Wind Wind Speed Wind Gust Humidity Rainfall Rate (Hourly) solar Conditions
00:04 40.1 °F 38.2 °F 30.10 in SE 5 mph 11 mph 93% 0.01 in 0.00 W/m2
00:09 40 °F 38.1 °F 30.10 in SE 5 mph 11 mph 93% 0.01 in 0.00 W/m2
00:14 40 °F 38.1 °F 30.11 in SE 4 mph 9 mph 93% 0.01 in 0.00 W/m2
00:19 40 °F 38.1 °F 30.11 in SE 4 mph 9 mph 93% 0.01 in 0.00 W/m2
00:24 39.9 °F 38 °F 30.10 in SE 3 mph 9 mph 93% 0.01 in 0.00 W/m2
00:29 39.9 °F 38 °F 30.10 in SE 2 mph 7 mph 93% 0.01 in 0.00 W/m2
00:34 39.8 °F 37.9 °F 30.10 in SE 4 mph 6 mph 93% 0.01 in 0.00 W/m2
00:39 39.8 °F 37.9 °F 30.10 in SSE 3 mph 6 mph 93% 0.01 in 0.00 W/m2
00:44 39.8 °F 37.9 °F 30.10 in SE 4 mph 5 mph 93% 0.01 in 0.00 W/m2
00:49 39.8 °F 37.9 °F 30.10 in SE 1 mph 5 mph 93% 0.01 in 0.00 W/m2
00:54 39.7 °F 37.8 °F 30.09 in SE 2 mph 4 mph 93% 0.01 in 0.00 W/m2
00:59 39.7 °F 37.8 °F 30.09 in SE 1 mph 3 mph 93% 0 in 0.00 W/m2
01:04 39.7 °F 37.8 °F 30.09 in Calm   3 mph 93% 0 in 0.00 W/m2
01:09 39.7 °F 37.8 °F 30.10 in SE 1 mph 2 mph 93% 0 in 0.00 W/m2
01:14 39.7 °F 37.8 °F 30.09 in SE 1 mph 2 mph 93% 0 in 0.00 W/m2
01:19 39.7 °F 37.8 °F 30.09 in SE 1 mph 2 mph 93% 0 in 0.00 W/m2
01:24 39.6 °F 37.7 °F 30.09 in SE 2 mph 3 mph 93% 0 in 0.00 W/m2
01:29 39.6 °F 37.7 °F 30.09 in ESE 2 mph 4 mph 93% 0 in 0.00 W/m2
01:34 39.7 °F 38.1 °F 30.09 in East 2 mph 6 mph 94% 0 in 0.00 W/m2
01:39 39.6 °F 38 °F 30.08 in ENE 3 mph 6 mph 94% 0 in 0.00 W/m2
01:44 39.6 °F 38 °F 30.08 in East 5 mph 5 mph 94% 0 in 0.00 W/m2
01:49 39.5 °F 37.6 °F 30.08 in ENE 3 mph 5 mph 93% 0.01 in 0.00 W/m2
01:54 39.5 °F 37.6 °F 30.08 in ENE 3 mph 5 mph 93% 0.01 in 0.00 W/m2
01:59 39.4 °F 37.5 °F 30.08 in East 2 mph 6 mph 93% 0.01 in 0.00 W/m2
02:04 39.4 °F 37.5 °F 30.09 in East 3 mph 7 mph 93% 0.01 in 0.00 W/m2
02:09 39.4 °F 37.5 °F 30.09 in East 4 mph 7 mph 93% 0.01 in 0.00 W/m2
02:14 39.4 °F 37.8 °F 30.09 in East 4 mph 6 mph 94% 0.01 in 0.00 W/m2
02:19 39.4 °F 37.8 °F 30.09 in ESE 3 mph 6 mph 94% 0.01 in 0.00 W/m2
02:24 39.3 °F 37.7 °F 30.08 in East 3 mph 7 mph 94% 0.01 in 0.00 W/m2
02:29 39.3 °F 37.7 °F 30.08 in ENE 4 mph 7 mph 94% 0.01 in 0.00 W/m2
02:34 39.2 °F 37.6 °F 30.08 in East 3 mph 7 mph 94% 0.01 in 0.00 W/m2
02:39 39.2 °F 37.6 °F 30.08 in East 4 mph 7 mph 94% 0.01 in 0.00 W/m2
02:44 39.2 °F 37.6 °F 30.08 in East 2 mph 5 mph 94% 0.01 in 0.00 W/m2
02:49 39.2 °F 37.6 °F 30.08 in East 3 mph 5 mph 94% 0 in 0.00 W/m2
02:54 39.2 °F 37.6 °F 30.08 in East 2 mph 4 mph 94% 0.01 in 0.00 W/m2
02:59 39.2 °F 37.6 °F 30.08 in ENE 2 mph 5 mph 94% 0.01 in 0.00 W/m2
03:04 39.2 °F 37.6 °F 30.08 in ENE 3 mph 5 mph 94% 0.01 in 0.00 W/m2
03:09 39.2 °F 37.6 °F 30.08 in ENE 5 mph 5 mph 94% 0.01 in 0.00 W/m2
03:14 39.2 °F 37.6 °F 30.08 in NE 4 mph 6 mph 94% 0.01 in 0.00 W/m2
03:19 39.1 °F 37.5 °F 30.07 in ENE 3 mph 6 mph 94% 0.01 in 0.00 W/m2
03:24 39.1 °F 37.5 °F 30.07 in East 5 mph 7 mph 94% 0.01 in 0.00 W/m2
03:29 39 °F 37.4 °F 30.07 in East 3 mph 7 mph 94% 0.01 in 0.00 W/m2
03:34 38.9 °F 37.3 °F 30.07 in ENE 4 mph 7 mph 94% 0.01 in 0.00 W/m2
03:39 39 °F 37.4 °F 30.06 in ENE 4 mph 7 mph 94% 0.01 in 0.00 W/m2
03:44 39 °F 37.4 °F 30.07 in ENE 3 mph 5 mph 94% 0.01 in 0.00 W/m2
03:49 39 °F 37.4 °F 30.07 in ENE 3 mph 4 mph 94% 0.01 in 0.00 W/m2
03:54 39 °F 37.4 °F 30.06 in NE 5 mph 6 mph 94% 0 in 0.00 W/m2
03:59 39 °F 37.4 °F 30.06 in NE 5 mph 6 mph 94% 0 in 0.00 W/m2
04:04 39 °F 37.4 °F 30.06 in NE 6 mph 6 mph 94% 0 in 0.00 W/m2
04:09 39 °F 37.4 °F 30.06 in ENE 3 mph 7 mph 94% 0 in 0.00 W/m2
04:14 39 °F 37.4 °F 30.06 in ENE 3 mph 7 mph 94% 0 in 0.00 W/m2
04:19 38.9 °F 37.3 °F 30.06 in ENE 3 mph 7 mph 94% 0 in 0.00 W/m2
04:24 39 °F 37.4 °F 30.05 in NE 5 mph 7 mph 94% 0 in 0.00 W/m2
04:29 39 °F 37.4 °F 30.05 in NE 4 mph 7 mph 94% 0.01 in 0.00 W/m2
04:34 39 °F 37.4 °F 30.05 in NE 4 mph 8 mph 94% 0.01 in 0.00 W/m2
04:39 39 °F 37.4 °F 30.05 in NE 4 mph 8 mph 94% 0.01 in 0.00 W/m2
04:44 39 °F 37.4 °F 30.05 in NE 3 mph 7 mph 94% 0.01 in 0.00 W/m2
04:49 39.1 °F 37.5 °F 30.05 in NNE 4 mph 8 mph 94% 0.01 in 0.00 W/m2
04:54 39.1 °F 37.5 °F 30.05 in NNE 5 mph 9 mph 94% 0.01 in 0.00 W/m2
04:59 39.1 °F 37.5 °F 30.06 in NNE 4 mph 9 mph 94% 0.01 in 0.00 W/m2
05:04 39.1 °F 37.5 °F 30.06 in NNE 6 mph 9 mph 94% 0.01 in 0.00 W/m2
05:09 39.1 °F 37.5 °F 30.06 in NE 3 mph 9 mph 94% 0.01 in 0.00 W/m2
05:14 39.1 °F 37.5 °F 30.06 in NNE 6 mph 9 mph 94% 0.01 in 0.00 W/m2
05:19 39.1 °F 37.5 °F 30.06 in NE 5 mph 9 mph 94% 0.01 in 0.00 W/m2
05:24 39.1 °F 37.5 °F 30.06 in NNE 4 mph 9 mph 94% 0.01 in 0.00 W/m2
05:29 39.1 °F 37.5 °F 30.06 in NNE 5 mph 9 mph 94% 0 in 0.00 W/m2
05:34 39 °F 37.4 °F 30.06 in NNE 5 mph 9 mph 94% 0 in 0.00 W/m2
05:39 39 °F 37.4 °F 30.06 in NNE 7 mph 9 mph 94% 0 in 0.00 W/m2
05:44 39 °F 37.4 °F 30.06 in NNE 5 mph 8 mph 94% 0 in 0.00 W/m2
05:49 39 °F 37.4 °F 30.05 in NNE 8 mph 10 mph 94% 0 in 0.00 W/m2
05:54 39 °F 37.4 °F 30.05 in NNE 4 mph 10 mph 94% 0 in 0.00 W/m2
05:59 39 °F 37.4 °F 30.05 in NNE 7 mph 10 mph 94% 0 in 0.00 W/m2
06:04 39 °F 37.4 °F 30.05 in NNE 8 mph 9 mph 94% 0 in 0.00 W/m2
06:09 39 °F 37.4 °F 30.05 in NNE 5 mph 10 mph 94% 0 in 0.00 W/m2
06:14 39 °F 37.4 °F 30.05 in NNE 8 mph 10 mph 94% 0 in 0.00 W/m2
06:19 39 °F 37.4 °F 30.05 in NNE 5 mph 10 mph 94% 0 in 0.00 W/m2
06:24 39 °F 37.7 °F 30.05 in NNE 8 mph 10 mph 95% 0 in 0.00 W/m2
06:29 39 °F 37.7 °F 30.05 in NE 7 mph 10 mph 95% 0 in 5.00 W/m2
06:34 39 °F 37.4 °F 30.05 in NE 5 mph 11 mph 94% 0 in 9.00 W/m2
06:39 39 °F 37.4 °F 30.05 in NE 7 mph 11 mph 94% 0 in 11.00 W/m2
06:44 39 °F 37.4 °F 30.05 in NE 7 mph 11 mph 94% 0 in 12.00 W/m2
06:49 39 °F 37.4 °F 30.05 in NE 7 mph 11 mph 94% 0 in 14.00 W/m2
06:54 39.1 °F 37.5 °F 30.06 in NNE 5 mph 10 mph 94% 0 in 16.00 W/m2
06:59 39.2 °F 37.6 °F 30.06 in NNE 5 mph 11 mph 94% 0 in 16.00 W/m2
07:04 39.3 °F 37.7 °F 30.06 in NNE 8 mph 11 mph 94% 0 in 18.00 W/m2
07:09 39.3 °F 38 °F 30.06 in NNE 5 mph 11 mph 95% 0 in 16.00 W/m2
07:14 39.5 °F 37.9 °F 30.06 in North 8 mph 11 mph 94% 0 in 14.00 W/m2
07:19 39.5 °F 37.9 °F 30.06 in North 8 mph 11 mph 94% 0 in 12.00 W/m2
07:24 39.5 °F 37.9 °F 30.06 in NNE 8 mph 11 mph 94% 0 in 19.00 W/m2
07:29 39.5 °F 37.9 °F 30.06 in NNE 10 mph 11 mph 94% 0 in 26.00 W/m2
07:34 39.6 °F 38 °F 30.06 in NNE 10 mph 12 mph 94% 0 in 28.00 W/m2
07:39 39.7 °F 38.1 °F 30.06 in NNE 8 mph 12 mph 94% 0 in 26.00 W/m2
07:44 39.8 °F 38.2 °F 30.07 in NE 5 mph 11 mph 94% 0 in 28.00 W/m2
07:49 39.8 °F 38.2 °F 30.07 in NE 5 mph 11 mph 94% 0 in 28.00 W/m2
07:54 40 °F 38.4 °F 30.07 in NE 9 mph 13 mph 94% 0 in 26.00 W/m2
07:59 40.1 °F 38.5 °F 30.07 in NE 10 mph 13 mph 94% 0 in 32.00 W/m2
08:04 40.2 °F 38.6 °F 30.07 in NE 9 mph 14 mph 94% 0 in 32.00 W/m2
08:09 40.2 °F 38.6 °F 30.07 in NNE 8 mph 14 mph 94% 0 in 32.00 W/m2
08:14 40.3 °F 38.4 °F 30.07 in NNE 8 mph 14 mph 93% 0 in 39.00 W/m2
08:19 40.3 °F 38.4 °F 30.07 in NNE 6 mph 14 mph 93% 0 in 39.00 W/m2
08:24 40.4 °F 38.5 °F 30.07 in NE 11 mph 13 mph 93% 0 in 40.00 W/m2
08:29 40.4 °F 38.5 °F 30.07 in NNE 11 mph 13 mph 93% 0 in 39.00 W/m2
08:34 40.5 °F 38.6 °F 30.07 in NNE 9 mph 14 mph 93% 0 in 40.00 W/m2
08:39 40.5 °F 38.6 °F 30.07 in NNE 13 mph 14 mph 93% 0 in 37.00 W/m2
08:44 40.4 °F 38.5 °F 30.07 in North 12 mph 16 mph 93% 0 in 39.00 W/m2
08:49 40.5 °F 38.6 °F 30.08 in NNE 9 mph 16 mph 93% 0 in 40.00 W/m2
08:54 40.5 °F 38.6 °F 30.08 in NNE 11 mph 16 mph 93% 0 in 39.00 W/m2
08:59 40.5 °F 38.6 °F 30.08 in NE 9 mph 16 mph 93% 0 in 39.00 W/m2
09:04 40.6 °F 38.7 °F 30.08 in NNE 12 mph 14 mph 93% 0 in 35.00 W/m2
09:09 40.6 °F 38.7 °F 30.08 in NE 11 mph 15 mph 93% 0 in 35.00 W/m2
09:14 40.6 °F 38.7 °F 30.08 in NNE 13 mph 16 mph 93% 0 in 42.00 W/m2
09:19 40.6 °F 38.7 °F 30.08 in NE 10 mph 18 mph 93% 0 in 47.00 W/m2
09:24 40.6 °F 38.7 °F 30.08 in North 9 mph 18 mph 93% 0 in 53.00 W/m2
09:29 40.7 °F 38.8 °F 30.08 in NNE 11 mph 17 mph 93% 0 in 56.00 W/m2
09:34 40.7 °F 38.8 °F 30.08 in NNE 7 mph 17 mph 93% 0 in 62.00 W/m2
09:39 40.8 °F 38.9 °F 30.08 in NE 14 mph 16 mph 93% 0 in 63.00 W/m2
09:44 40.9 °F 39 °F 30.08 in NNE 12 mph 18 mph 93% 0 in 62.00 W/m2
09:49 41 °F 38.9 °F 30.08 in NNE 6 mph 18 mph 92% 0 in 63.00 W/m2
09:54 41.1 °F 39 °F 30.08 in NNE 8 mph 18 mph 92% 0 in 65.00 W/m2
09:59 41.2 °F 39.1 °F 30.08 in NNE 10 mph 18 mph 92% 0 in 70.00 W/m2
10:04 41.3 °F 39.2 °F 30.08 in North 11 mph 15 mph 92% 0 in 58.00 W/m2
10:09 41.4 °F 39 °F 30.08 in NNE 6 mph 15 mph 91% 0 in 58.00 W/m2
10:14 41.5 °F 39.1 °F 30.08 in NNE 9 mph 15 mph 91% 0 in 62.00 W/m2
10:19 41.5 °F 39.1 °F 30.08 in NNE 6 mph 15 mph 91% 0 in 67.00 W/m2
10:24 41.6 °F 39.2 °F 30.08 in NNE 8 mph 15 mph 91% 0 in 62.00 W/m2
10:29 41.8 °F 39.1 °F 30.08 in NE 10 mph 14 mph 90% 0 in 76.00 W/m2
10:34 41.9 °F 39.2 °F 30.08 in NNE 5 mph 14 mph 90% 0 in 93.00 W/m2
10:39 42 °F 39.3 °F 30.08 in NE 13 mph 15 mph 90% 0 in 95.00 W/m2
10:44 42.2 °F 39.5 °F 30.08 in NNE 14 mph 15 mph 90% 0 in 102.00 W/m2
10:49 42.4 °F 39.7 °F 30.08 in NNE 12 mph 15 mph 90% 0 in 118.00 W/m2
10:54 42.7 °F 39.7 °F 30.08 in NNE 7 mph 15 mph 89% 0 in 135.00 W/m2
10:59 43 °F 40.3 °F 30.07 in NNE 13 mph 13 mph 90% 0 in 148.00 W/m2
11:04 43.4 °F 40.7 °F 30.07 in NNE 9 mph 13 mph 90% 0 in 192.00 W/m2
11:09 43.7 °F 41 °F 30.07 in NNE 11 mph 15 mph 90% 0 in 248.00 W/m2
11:14 44.2 °F 41.2 °F 30.07 in NE 10 mph 15 mph 89% 0 in 311.00 W/m2
11:19 44.7 °F 41.4 °F 30.07 in NNE 10 mph 17 mph 88% 0 in 292.00 W/m2
11:24 44.9 °F 41 °F 30.07 in NE 6 mph 17 mph 86% 0 in 281.00 W/m2
11:29 45.3 °F 41.4 °F 30.07 in NNE 11 mph 16 mph 86% 0 in 302.00 W/m2
11:34 45.6 °F 41.4 °F 30.07 in NE 14 mph 18 mph 85% 0 in 316.00 W/m2
11:39 45.9 °F 41.3 °F 30.07 in NE 11 mph 18 mph 84% 0 in 378.00 W/m2
11:44 46.7 °F 42.1 °F 30.07 in NE 9 mph 18 mph 84% 0 in 515.00 W/m2
11:49 47.4 °F 41.9 °F 30.07 in NE 14 mph 18 mph 81% 0 in 575.00 W/m2
11:54 48.1 °F 42.5 °F 30.07 in NE 11 mph 18 mph 81% 0 in 584.00 W/m2
11:59 48.8 °F 42.6 °F 30.07 in NE 14 mph 18 mph 79% 0 in 482.00 W/m2
12:04 48.9 °F 41.7 °F 30.07 in NNE 8 mph 19 mph 76% 0 in 522.00 W/m2
12:09 49.2 °F 41.6 °F 30.06 in NNE 11 mph 19 mph 75% 0 in 589.00 W/m2
12:14 50 °F 41.3 °F 30.06 in NE 14 mph 19 mph 72% 0 in 371.00 W/m2
12:19 49.9 °F 40.1 °F 30.06 in NE 18 mph 21 mph 69% 0 in 311.00 W/m2
12:24 49.6 °F 39.8 °F 30.06 in NE 13 mph 21 mph 69% 0 in 299.00 W/m2
12:29 49.7 °F 40.7 °F 30.06 in NNE 16 mph 20 mph 71% 0 in 262.00 W/m2
12:34 50.1 °F 40.3 °F 30.05 in NNE 14 mph 20 mph 69% 0 in 881.00 W/m2
12:39 52 °F 42.5 °F 30.05 in NE 15 mph 20 mph 70% 0 in 962.00 W/m2
12:44 52.3 °F 40.1 °F 30.05 in NNE 15 mph 21 mph 63% 0 in 353.00 W/m2
12:49 52.6 °F 39.5 °F 30.05 in NE 19 mph 22 mph 61% 0 in 1028.00 W/m2
12:54 52.3 °F 37.5 °F 30.05 in NE 11 mph 23 mph 57% 0 in 376.00 W/m2
12:59 52.2 °F 38.3 °F 30.04 in ENE 11 mph 23 mph 59% 0 in 396.00 W/m2
13:04 53.1 °F 39.6 °F 30.04 in NE 15 mph 24 mph 60% 0 in 1046.00 W/m2
13:09 54 °F 39.5 °F 30.04 in NNE 13 mph 24 mph 58% 0 in 896.00 W/m2
13:14 55.1 °F 39.2 °F 30.04 in ENE 16 mph 20 mph 55% 0 in 933.00 W/m2
13:19 55.3 °F 38.4 °F 30.04 in NE 10 mph 24 mph 53% 0 in 984.00 W/m2
13:24 56.4 °F 40 °F 30.04 in ENE 16 mph 24 mph 54% 0 in 953.00 W/m2
13:29 55.8 °F 38.4 °F 30.04 in NNE 15 mph 24 mph 52% 0 in 360.00 W/m2
13:34 54.9 °F 36.6 °F 30.03 in NNE 11 mph 24 mph 50% 0 in 336.00 W/m2
13:39 54 °F 35.8 °F 30.03 in NE 15 mph 24 mph 50% 0 in 281.00 W/m2
13:44 53.2 °F 36 °F 30.03 in NE 18 mph 23 mph 52% 0 in 302.00 W/m2
13:49 53 °F 36.8 °F 30.03 in NE 13 mph 21 mph 54% 0 in 338.00 W/m2
13:54 53.4 °F 36.7 °F 30.03 in NE 11 mph 22 mph 53% 0 in 770.00 W/m2
13:59 54.2 °F 36.5 °F 30.03 in North 9 mph 24 mph 51% 0 in 636.00 W/m2
14:04 54.1 °F 36.4 °F 30.03 in NE 14 mph 24 mph 51% 0 in 248.00 W/m2
14:09 53.6 °F 36.9 °F 30.03 in NE 10 mph 24 mph 53% 0 in 181.00 W/m2
14:14 53.2 °F 36.5 °F 30.03 in NE 19 mph 24 mph 53% 0 in 202.00 W/m2
14:19 52.9 °F 36.7 °F 30.03 in NE 12 mph 21 mph 54% 0 in 241.00 W/m2
14:24 53 °F 37.3 °F 30.03 in NNE 9 mph 19 mph 55% 0 in 320.00 W/m2
14:29 53.6 °F 37.8 °F 30.03 in NNE 13 mph 20 mph 55% 0 in 519.00 W/m2
14:34 54.6 °F 38.3 °F 30.03 in NNE 14 mph 20 mph 54% 0 in 459.00 W/m2
14:39 54.9 °F 37.6 °F 30.02 in NNE 12 mph 20 mph 52% 0 in 381.00 W/m2
14:44 55.1 °F 38.3 °F 30.02 in NE 15 mph 20 mph 53% 0 in 875.00 W/m2
14:49 55.9 °F 38 °F 30.02 in NNE 18 mph 20 mph 51% 0 in 364.00 W/m2
14:54 55.5 °F 37.1 °F 30.02 in NNE 7 mph 23 mph 50% 0 in 162.00 W/m2
14:59 54.7 °F 37.4 °F 30.02 in NNE 11 mph 23 mph 52% 0 in 102.00 W/m2
15:04 53.9 °F 35.7 °F 30.02 in NNE 9 mph 23 mph 50% 0 in 155.00 W/m2
15:09 53.5 °F 36.8 °F 30.02 in NE 9 mph 23 mph 53% 0 in 211.00 W/m2
15:14 53.5 °F 37.3 °F 30.02 in NNE 13 mph 19 mph 54% 0 in 313.00 W/m2
15:19 54 °F 37.2 °F 30.02 in NE 16 mph 19 mph 53% 0 in 371.00 W/m2
15:24 54.3 °F 37.5 °F 30.02 in North 13 mph 21 mph 53% 0 in 243.00 W/m2
15:29 54.1 °F 36.4 °F 30.02 in NNE 19 mph 21 mph 51% 0 in 125.00 W/m2
15:34 53.6 °F 36.9 °F 30.02 in North 13 mph 21 mph 53% 0 in 102.00 W/m2
15:39 53.2 °F 37 °F 30.02 in NNE 16 mph 21 mph 54% 0 in 111.00 W/m2
15:44 53 °F 37.3 °F 30.02 in North 17 mph 22 mph 55% 0 in 90.00 W/m2
15:49 52.8 °F 37.5 °F 30.02 in North 16 mph 22 mph 56% 0 in 62.00 W/m2
15:54 52.5 °F 37.2 °F 30.02 in NNE 14 mph 21 mph 56% 0 in 72.00 W/m2
15:59 52.4 °F 37.6 °F 30.02 in NNE 5 mph 21 mph 57% 0 in 141.00 W/m2
16:04 52.6 °F 37.8 °F 30.01 in NNE 11 mph 18 mph 57% 0 in 156.00 W/m2
16:09 52.9 °F 38.1 °F 30.01 in North 16 mph 23 mph 57% 0 in 181.00 W/m2
16:14 53.1 °F 37.8 °F 30.01 in NNE 14 mph 24 mph 56% 0 in 207.00 W/m2
16:19 53.3 °F 39.3 °F 30.02 in North 12 mph 24 mph 59% 0 in 214.00 W/m2
16:24 53.5 °F 38.6 °F 30.01 in NNE 19 mph 25 mph 57% 0 in 188.00 W/m2
16:29 53.4 °F 39 °F 30.01 in NNE 17 mph 25 mph 58% 0 in 165.00 W/m2
16:34 53.2 °F 38.8 °F 30.01 in NE 14 mph 23 mph 58% 0 in 206.00 W/m2
16:39 53.2 °F 39.2 °F 30.01 in NNE 14 mph 23 mph 59% 0 in 236.00 W/m2
16:44 53.4 °F 39 °F 30.01 in NE 13 mph 23 mph 58% 0 in 211.00 W/m2
16:49 53.4 °F 38.1 °F 30.01 in NE 7 mph 23 mph 56% 0 in 162.00 W/m2
16:54 53.4 °F 38.5 °F 30.01 in NNE 10 mph 21 mph 57% 0 in 220.00 W/m2
16:59 53.6 °F 38.7 °F 30.01 in NNE 13 mph 21 mph 57% 0 in 202.00 W/m2
17:05 53.7 °F 38.4 °F 30.01 in NNE 13 mph 20 mph 56% 0 in 171.00 W/m2
17:10 53.6 °F 38.7 °F 30.01 in NNE 14 mph 24 mph 57% 0 in 149.00 W/m2
17:15 53.5 °F 38.6 °F 30.01 in NE 11 mph 24 mph 57% 0 in 195.00 W/m2
17:20 53.4 °F 39 °F 30.01 in NE 17 mph 24 mph 58% 0 in 213.00 W/m2
17:25 53.5 °F 39.1 °F 30.01 in NE 14 mph 24 mph 58% 0 in 158.00 W/m2
17:30 53.2 °F 38.4 °F 30.01 in North 14 mph 23 mph 57% 0 in 76.00 W/m2
17:35 52.7 °F 38.3 °F 30.01 in NNE 13 mph 23 mph 58% 0 in 44.00 W/m2
17:40 52.2 °F 38.3 °F 30.01 in NE 10 mph 23 mph 59% 0 in 60.00 W/m2
17:44 52 °F 38.1 °F 30.01 in NE 7 mph 23 mph 59% 0 in 65.00 W/m2
17:49 51.9 °F 38.4 °F 30.01 in NNE 11 mph 17 mph 60% 0 in 47.00 W/m2
17:55 51.7 °F 38.7 °F 30.01 in NNE 10 mph 17 mph 61% 0 in 70.00 W/m2
17:59 51.7 °F 38.7 °F 30.01 in NNE 16 mph 17 mph 61% 0 in 93.00 W/m2
18:04 51.8 °F 38.8 °F 30.02 in NNE 8 mph 17 mph 61% 0 in 46.00 W/m2
18:09 51.7 °F 38.3 °F 30.02 in NE 16 mph 22 mph 60% 0 in 30.00 W/m2
18:14 51.5 °F 39.3 °F 30.02 in NNE 13 mph 22 mph 63% 0 in 58.00 W/m2
18:19 51.2 °F 38.6 °F 30.02 in NNE 16 mph 23 mph 62% 0 in 120.00 W/m2
18:24 51.2 °F 38.6 °F 30.02 in NNE 13 mph 23 mph 62% 0 in 146.00 W/m2
18:29 51.5 °F 39.3 °F 30.03 in NE 16 mph 23 mph 63% 0 in 179.00 W/m2
18:34 51.7 °F 39.1 °F 30.03 in NNE 16 mph 23 mph 62% 0 in 162.00 W/m2
18:39 51.8 °F 38.8 °F 30.03 in NE 21 mph 25 mph 61% 0 in 125.00 W/m2
18:44 51.7 °F 38.3 °F 30.03 in NE 19 mph 26 mph 60% 0 in 118.00 W/m2
18:49 51.5 °F 38.5 °F 30.03 in NNE 13 mph 26 mph 61% 0 in 91.00 W/m2
18:54 51.4 °F 38.4 °F 30.04 in NNE 19 mph 26 mph 61% 0 in 100.00 W/m2
18:59 51.3 °F 38.7 °F 30.04 in North 16 mph 26 mph 62% 0 in 107.00 W/m2
19:04 51.2 °F 38.2 °F 30.04 in North 11 mph 26 mph 61% 0 in 113.00 W/m2
19:10 51.1 °F 38.1 °F 30.03 in NNE 13 mph 26 mph 61% 0 in 125.00 W/m2
19:15 51.1 °F 38.1 °F 30.03 in NNE 19 mph 27 mph 61% 0 in 130.00 W/m2
19:20 50.9 °F 37.5 °F 30.04 in NNE 18 mph 27 mph 60% 0 in 125.00 W/m2
19:25 50.7 °F 37.7 °F 30.04 in NNE 13 mph 26 mph 61% 0 in 120.00 W/m2
19:30 50.6 °F 38.1 °F 30.04 in NNE 17 mph 26 mph 62% 0 in 104.00 W/m2
19:35 50.4 °F 37.4 °F 30.04 in NE 16 mph 26 mph 61% 0 in 88.00 W/m2
19:40 50.2 °F 37.3 °F 30.04 in NNE 17 mph 25 mph 61% 0 in 79.00 W/m2
19:45 50 °F 37.1 °F 30.04 in NNE 10 mph 25 mph 61% 0 in 65.00 W/m2
19:50 49.8 °F 36.9 °F 30.05 in NNE 14 mph 22 mph 61% 0 in 51.00 W/m2
19:54 49.6 °F 36.7 °F 30.05 in NNE 10 mph 23 mph 61% 0 in 53.00 W/m2
19:59 49.4 °F 36.5 °F 30.05 in NNE 14 mph 24 mph 61% 0 in 46.00 W/m2
20:04 49.2 °F 36.3 °F 30.05 in NNE 11 mph 24 mph 61% 0 in 35.00 W/m2
20:09 49.1 °F 36.2 °F 30.05 in NNE 18 mph 24 mph 61% 0 in 23.00 W/m2
20:14 48.9 °F 35.6 °F 30.06 in NNE 9 mph 24 mph 60% 0 in 14.00 W/m2
20:19 48.7 °F 35.8 °F 30.06 in NNE 12 mph 24 mph 61% 0 in 12.00 W/m2
20:24 48.6 °F 35.7 °F 30.06 in NNE 5 mph 17 mph 61% 0 in 16.00 W/m2
20:29 48.5 °F 35.7 °F 30.06 in NNE 10 mph 16 mph 61% 0 in 18.00 W/m2
20:34 48.5 °F 35.2 °F 30.06 in NNE 9 mph 16 mph 60% 0 in 26.00 W/m2
20:39 48.6 °F 34.9 °F 30.06 in NE 15 mph 19 mph 59% 0 in 25.00 W/m2
20:44 48.6 °F 34.5 °F 30.06 in NNE 9 mph 19 mph 58% 0 in 19.00 W/m2
20:49 48.4 °F 34.3 °F 30.06 in NE 4 mph 19 mph 58% 0 in 11.00 W/m2
20:54 48 °F 33.9 °F 30.07 in NNE 14 mph 19 mph 58% 0 in 9.00 W/m2
20:59 47.7 °F 33.6 °F 30.07 in NNE 7 mph 19 mph 58% 0 in 7.00 W/m2
21:04 47.2 °F 33.6 °F 30.07 in NNE 4 mph 15 mph 59% 0 in 5.00 W/m2
21:09 46.7 °F 33.5 °F 30.07 in NE 9 mph 13 mph 60% 0 in 0.00 W/m2
21:14 46.2 °F 33.1 °F 30.07 in NE 7 mph 12 mph 60% 0 in 0.00 W/m2
21:20 45.7 °F 33 °F 30.07 in NNE 7 mph 12 mph 61% 0 in 0.00 W/m2
21:25 45.2 °F 32.9 °F 30.07 in NNE 6 mph 12 mph 62% 0 in 0.00 W/m2
21:30 44.7 °F 32.5 °F 30.08 in NNE 8 mph 10 mph 62% 0 in 0.00 W/m2
21:35 44.2 °F 32.4 °F 30.08 in NNE 6 mph 10 mph 63% 0 in 0.00 W/m2
21:40 43.8 °F 32.4 °F 30.08 in NNE 7 mph 11 mph 64% 0 in 0.00 W/m2
21:45 43.6 °F 32.2 °F 30.08 in NNE 6 mph 11 mph 64% 0 in 0.00 W/m2
21:50 43.3 °F 31.9 °F 30.08 in NNE 4 mph 11 mph 64% 0 in 0.00 W/m2
21:55 43.2 °F 31.8 °F 30.08 in NNE 5 mph 11 mph 64% 0 in 0.00 W/m2
22:00 42.8 °F 31.5 °F 30.08 in NNE 5 mph 10 mph 64% 0 in 0.00 W/m2
22:04 42.4 °F 31.1 °F 30.08 in NNE 4 mph 10 mph 64% 0 in 0.00 W/m2
22:09 42.1 °F 31.2 °F 30.09 in NNE 5 mph 10 mph 65% 0 in 0.00 W/m2
22:14 41.8 °F 30.9 °F 30.09 in NE 4 mph 8 mph 65% 0 in 0.00 W/m2
22:19 41.4 °F 30.5 °F 30.09 in NNE 5 mph 8 mph 65% 0 in 0.00 W/m2
22:24 41.1 °F 30.6 °F 30.09 in NNE 8 mph 9 mph 66% 0 in 0.00 W/m2
22:29 41 °F 30.1 °F 30.09 in NNE 8 mph 11 mph 65% 0 in 0.00 W/m2
22:34 40.9 °F 30 °F 30.09 in North 8 mph 12 mph 65% 0 in 0.00 W/m2
22:39 40.6 °F 29.7 °F 30.09 in NNE 10 mph 13 mph 65% 0 in 0.00 W/m2
22:44 40.6 °F 29.4 °F 30.09 in NNE 8 mph 13 mph 64% 0 in 0.00 W/m2
22:49 40.5 °F 29.3 °F 30.09 in NNE 7 mph 12 mph 64% 0 in 0.00 W/m2
22:54 40.1 °F 28.9 °F 30.09 in NNE 8 mph 13 mph 64% 0 in 0.00 W/m2
22:59 39.6 °F 28.4 °F 30.10 in NNE 9 mph 14 mph 64% 0 in 0.00 W/m2
23:04 39.2 °F 28 °F 30.10 in NNE 5 mph 14 mph 64% 0 in 0.00 W/m2
23:09 38.9 °F 27.8 °F 30.10 in NNE 6 mph 14 mph 64% 0 in 0.00 W/m2
23:14 38.7 °F 27.9 °F 30.10 in NNE 10 mph 14 mph 65% 0 in 0.00 W/m2
23:19 38.5 °F 27.7 °F 30.11 in NNE 9 mph 14 mph 65% 0 in 0.00 W/m2
23:25 38.3 °F 27.6 °F 30.11 in NNE 10 mph 14 mph 65% 0 in 0.00 W/m2
23:30 38.1 °F 27.7 °F 30.11 in NNE 10 mph 14 mph 66% 0 in 0.00 W/m2
23:35 37.8 °F 27.5 °F 30.11 in NNE 12 mph 14 mph 66% 0 in 0.00 W/m2
23:40 37.5 °F 27.5 °F 30.11 in NNE 10 mph 15 mph 67% 0 in 0.00 W/m2
23:45 37.4 °F 27.8 °F 30.11 in NNE 13 mph 17 mph 68% 0 in 0.00 W/m2
23:50 37.4 °F 27.8 °F 30.11 in NNE 7 mph 18 mph 68% 0 in 0.00 W/m2
23:54 37.3 °F 27.7 °F 30.11 in NE 13 mph 18 mph 68% 0 in 0.00 W/m2
23:59 37.3 °F 27.7 °F 30.12 in NE 9 mph 17 mph 68% 0 in 0.00 W/m2
Bismarck, North Dakota, USA
Compliments of Weather Underground - 4 mb